Temp
10 9 9 9 9 8 8 8 8 8 8 8 8 8 8 8 7 7 8 8 8 8 8 8 8 7 7 7 7 8 7 7 7
9 9 9 9 9 8 8 8 8 8 7 7 8 7 7 7 7 8 8 8 8 8 8 7 7 7 7 7 7 7 7 7 7
9 9 9 9 8 8 8 8 8 8 8 7 7 7 7 7 7 7 8 7 7 7 7 7 7 7 7 7 7 7 7 7 7
9 9 9 8 8 8 8 8 8 8 8 7 7 7 7 7 7 7 7 7 7 7 7 7 6 6 6 6 6 6 6 6 6
9 9 9 8 8 8 8 8 8 8 8 7 7 7 7 7 7 7 7 7 7 7 7 7 7 6 6 6 6 6 6 6 6
9 9 8 8 8 8 8 8 8 8 8 7 7 7 7 7 7 7 7 7 7 7 7 7 6 6 6 6 6 6 6 6 6
9 9 8 8 8 8 8 8 8 8 7 7 7 7 7 7 7 7 7 7 7 7 7 6 6 6 6 6 6 6 5 5 5
9 8 8 8 8 8 8 8 8 8 7 7 7 7 7 7 7 7 7 7 7 7 7 6 6 6 6 6 5 5 5 5 5
8 8 8 8 8 8 8 8 7 8 7 7 7 7 7 7 7 7 7 6 6 6 6 6 6 6 5 5 5 5 5 5 5
8 8 8 8 8 7 7 7 7 8 7 7 7 7 7 7 6 6 6 6 6 6 6 6 5 5 5 5 5 4 4 4 4
8 8 8 8 8 8 7 7 7 7 7 7 7 7 7 6 6 6 6 6 5 5 5 5 5 5 5 4 4 4 4 4 4
8 8 8 8 8 8 7 7 7 7 7 7 6 6 6 6 6 6 6 5 5 5 5 4 4 4 4 4 3 3 3 3 3
8 8 8 8 7 7 7 7 7 7 7 6 6 6 6 5 5 5 5 4 4 4 4 4 3 3 3 3 3 3 3 3 3
7 7 7 7 7 7 7 7 7 7 6 6 6 6 5 5 5 4 4 4 4 3 3 3 3 3 2 2 2 2 2 2 2
7 7 7 7 7 6 6 6 6 6 6 6 6 5 5 5 4 4 3 3 3 3 2 2 2 2 2 1 1 1 1 1 1
6 6 6 6 6 6 6 6 5 5 5 5 5 5 5 4 4 4 3 3 2 2 2 1 1 1 0 0 0 0 0 0 0
6 6 6 6 6 5 5 5 5 5 4 4 4 4 4 4 3 3 2 2 2 2 1 1 0 -0 -0 -0 -1 -1 -1 -1 -1
6 6 5 5 5 5 5 5 5 4 4 4 4 4 3 2 3 2 2 1 1 1 0 -0 -1 -1 -1 -1 -1 -1 -1 -1 -1
5 5 5 5 4 4 4 4 4 4 4 4 3 2 2 2 2 1 1 0 0 -0 -1 -1 -1 -1 -1 -2 -2 -2 -2 -2 -2
5 4 4 5 4 4 4 3 3 3 2 3 3 2 2 1 1 1 -0 -0 -1 -1 -1 -1 -1 -1 -1 -1 -2 -2 -2 -3 -3
Height
3166 3167 3168 3169 3170 3171 3172 3172 3174 3175 3176 3177 3178 3178 3178 3178 3178 3178 3178 3177 3177 3177 3175 3175 3174 3174 3174 3174 3174 3174 3174 3174 3173
3166 3167 3169 3170 3170 3171 3172 3174 3175 3177 3177 3178 3178 3179 3178 3179 3178 3178 3178 3176 3176 3176 3175 3174 3174 3174 3174 3174 3174 3174 3174 3174 3173
3167 3168 3169 3170 3171 3172 3173 3174 3176 3177 3177 3178 3179 3178 3178 3178 3178 3177 3177 3177 3176 3175 3175 3174 3174 3174 3174 3175 3175 3174 3175 3174 3173
3167 3168 3170 3171 3172 3173 3173 3175 3176 3177 3178 3178 3179 3178 3178 3177 3177 3177 3176 3176 3176 3176 3176 3175 3175 3175 3175 3175 3175 3175 3174 3174 3173
3167 3169 3170 3171 3172 3173 3174 3175 3176 3177 3179 3178 3178 3178 3178 3178 3178 3177 3176 3176 3177 3176 3176 3176 3175 3175 3175 3175 3175 3174 3174 3173 3172
3167 3169 3170 3171 3172 3173 3174 3175 3175 3177 3178 3178 3178 3178 3178 3178 3177 3177 3177 3177 3177 3176 3176 3176 3175 3175 3174 3174 3174 3174 3173 3172 3171
3167 3168 3169 3171 3172 3173 3174 3175 3176 3178 3178 3178 3178 3178 3178 3178 3177 3177 3177 3177 3177 3176 3176 3176 3175 3175 3174 3174 3173 3173 3172 3171 3171
3166 3167 3168 3170 3171 3173 3173 3174 3175 3177 3178 3177 3178 3178 3178 3178 3177 3177 3177 3177 3177 3176 3176 3175 3175 3174 3173 3172 3172 3171 3170 3169 3168
3165 3166 3168 3169 3170 3172 3173 3174 3174 3176 3177 3177 3177 3178 3177 3177 3177 3177 3177 3176 3176 3176 3175 3175 3174 3173 3172 3171 3170 3169 3168 3167 3165
3165 3166 3167 3168 3170 3171 3172 3174 3174 3175 3176 3176 3177 3177 3177 3176 3176 3176 3176 3176 3175 3175 3174 3173 3172 3171 3170 3169 3168 3167 3165 3164 3163
3163 3165 3166 3167 3168 3169 3170 3172 3173 3175 3175 3175 3175 3175 3175 3176 3176 3175 3175 3174 3173 3172 3172 3171 3171 3169 3168 3167 3166 3165 3163 3161 3160
3162 3163 3164 3165 3167 3168 3168 3170 3171 3172 3173 3173 3173 3174 3173 3173 3173 3173 3172 3172 3171 3171 3170 3169 3168 3167 3166 3165 3163 3162 3160 3158 3157
3160 3161 3162 3163 3164 3165 3167 3168 3169 3170 3171 3171 3171 3170 3171 3170 3170 3170 3169 3169 3169 3169 3168 3168 3166 3165 3163 3161 3160 3159 3157 3155 3153
3158 3158 3159 3161 3161 3162 3163 3165 3166 3167 3167 3168 3169 3168 3168 3168 3167 3167 3166 3166 3165 3165 3164 3164 3163 3161 3159 3157 3155 3154 3152 3150 3148
3154 3156 3157 3158 3159 3159 3160 3161 3162 3163 3164 3164 3164 3165 3165 3165 3164 3164 3162 3162 3161 3161 3160 3160 3159 3157 3155 3152 3150 3148 3146 3144 3142
3150 3151 3153 3154 3155 3156 3156 3157 3157 3158 3159 3159 3160 3160 3160 3160 3160 3160 3159 3158 3157 3156 3156 3155 3154 3152 3150 3147 3145 3142 3140 3138 3136
3145 3147 3149 3150 3151 3152 3152 3153 3154 3155 3155 3156 3155 3155 3156 3156 3155 3154 3153 3153 3152 3151 3150 3150 3148 3147 3145 3142 3140 3137 3134 3132 3129
3141 3143 3144 3145 3147 3147 3148 3149 3149 3150 3150 3150 3151 3150 3151 3150 3150 3150 3148 3147 3146 3145 3145 3143 3142 3141 3140 3138 3134 3131 3128 3125 3122
3136 3138 3140 3141 3142 3142 3144 3144 3144 3145 3146 3146 3146 3145 3145 3143 3144 3144 3143 3142 3141 3140 3138 3137 3135 3133 3132 3130 3128 3125 3121 3118 3115
3130 3132 3134 3136 3137 3138 3138 3139 3140 3139 3139 3140 3140 3139 3139 3138 3138 3136 3137 3136 3135 3134 3131 3129 3127 3125 3124 3122 3120 3116 3113 3109 3105
Wind_Speed
13 13 14 14 14 14 13 12 11 10 10 10 10 9 8 7 7 6 6 5 7 7 7 9 8 8 7 7 7 7 7 8 8
12 12 12 13 13 13 12 11 10 9 9 8 8 8 7 6 7 6 7 7 9 9 9 9 10 9 8 7 7 8 8 8 8
12 13 12 12 12 12 11 10 9 8 8 8 7 6 5 6 7 6 6 7 8 8 9 10 10 10 8 7 7 6 7 7 7
12 13 12 12 11 10 9 8 7 7 7 7 6 4 5 5 6 6 7 8 8 8 8 9 8 8 8 7 7 7 7 7 8
13 12 12 11 10 9 9 8 7 6 6 5 3 4 3 4 5 6 7 7 7 7 7 8 8 8 7 7 6 6 6 7 8
12 12 12 11 10 9 8 7 6 5 5 4 2 3 3 3 4 5 6 6 6 6 7 6 7 7 8 8 8 9 9 10 10
11 11 11 11 9 8 7 5 4 4 4 3 2 2 2 2 3 4 5 4 5 5 5 6 6 7 8 8 8 9 10 10 11
12 12 11 10 9 8 7 5 3 2 2 3 2 1 0 1 2 3 3 3 3 4 4 5 5 6 6 7 8 9 10 11 12
13 13 12 11 10 9 7 5 4 4 3 3 3 2 2 1 1 2 2 2 3 3 4 4 5 6 7 8 9 10 11 12 13
13 13 12 12 11 9 7 6 6 4 4 4 4 4 4 4 4 4 4 5 5 5 5 5 6 7 9 9 10 11 12 13 14
16 15 14 13 12 11 10 9 8 6 6 6 6 5 6 6 7 7 7 8 8 7 8 8 9 9 11 12 13 14 14 15 16
18 17 16 15 14 13 12 11 11 10 8 8 8 8 8 8 9 10 11 11 11 11 12 12 12 12 13 14 15 16 17 18 19
19 18 18 18 16 15 14 13 12 11 10 10 10 11 11 10 11 12 12 13 14 14 15 15 15 15 16 17 18 19 20 21 21
20 21 20 19 19 17 16 15 14 13 13 12 12 12 13 13 14 14 15 15 16 16 16 17 17 18 18 20 20 21 23 24 25
22 22 21 21 20 18 18 17 16 16 15 15 15 14 14 15 16 17 18 18 18 18 18 18 18 20 20 22 22 24 25 26 27
24 25 23 22 22 21 21 20 20 18 17 17 17 17 16 16 17 19 20 21 20 20 20 20 20 20 22 22 24 27 28 30 31
26 25 25 25 24 23 22 22 20 19 19 19 19 18 17 17 19 21 22 22 22 22 21 21 21 22 23 24 26 29 31 32 33
27 27 26 26 26 25 24 24 23 23 21 21 20 20 20 19 20 21 23 24 23 23 22 23 24 24 25 26 28 30 32 34 36
27 27 27 27 27 26 25 25 25 24 22 23 22 21 22 23 23 23 24 24 24 24 24 25 25 26 27 28 30 33 35 37 38
29 29 28 29 29 28 27 26 25 24 24 25 25 24 24 25 25 25 25 25 24 24 25 26 28 30 31 32 33 35 36 38 40
Wind_Direction
139 136 135 134 134 135 137 137 134 133 127 121 122 116 108 96 86 84 78 62 62 53 45 50 52 60 64 68 69 65 57 48 43
139 135 135 135 136 135 136 132 132 126 123 120 107 98 90 88 77 63 58 45 46 42 38 43 49 55 59 59 56 51 40 34 28
144 141 141 142 139 138 135 132 128 129 120 108 92 89 83 74 70 58 57 55 43 38 40 44 45 49 51 51 45 39 28 18 14
151 149 148 147 145 142 138 133 133 128 110 97 90 74 65 62 65 65 49 45 38 39 39 45 49 49 44 41 34 27 18 8 2
158 156 154 153 151 151 150 147 153 133 116 106 102 98 80 66 65 62 54 47 41 44 39 41 38 36 36 29 19 16 7 359 353
163 161 160 160 161 164 166 165 165 133 123 121 137 93 84 70 66 61 52 46 41 42 39 38 32 28 23 17 8 3 356 351 346
170 167 167 166 168 174 176 177 170 147 137 148 165 113 99 69 67 60 53 43 33 33 30 30 22 16 11 6 2 356 350 344 337
177 176 174 173 174 182 186 189 182 169 160 169 193 185 275 33 30 31 24 22 17 17 17 11 4 3 358 352 345 338 337 333 329
185 185 181 178 181 188 194 206 201 190 198 223 232 225 240 282 319 313 313 323 329 331 340 338 344 340 335 333 330 328 328 325 321
192 191 188 185 189 193 193 207 222 208 209 235 260 275 284 285 279 279 287 292 295 302 308 311 317 321 323 321 320 322 320 320 318
195 194 194 194 195 193 197 206 221 224 225 238 243 253 266 278 282 282 282 284 286 290 295 302 305 308 310 312 314 314 315 315 313
201 200 200 198 202 203 205 210 216 221 225 234 251 260 258 257 266 274 281 284 287 289 290 294 298 302 303 305 307 308 310 310 311
208 207 208 205 206 210 212 217 223 231 234 235 243 255 259 260 265 270 274 278 283 286 290 294 297 298 299 300 303 305 305 305 306
216 215 214 214 212 213 217 223 228 234 242 245 247 254 263 269 271 272 273 275 278 282 286 290 292 294 296 297 298 299 301 304 304
223 225 224 222 222 219 221 224 230 236 243 249 253 255 261 269 273 274 276 276 278 281 283 286 289 290 292 294 297 299 301 302 302
226 228 229 229 227 226 229 228 230 234 240 246 253 257 260 266 271 273 274 277 277 280 282 286 287 287 289 292 297 300 301 302 303
228 230 232 233 233 233 234 237 240 243 244 249 252 259 264 269 273 276 277 277 277 278 281 283 284 286 290 295 298 299 299 301 301
234 234 234 235 237 239 239 241 240 242 244 250 255 263 267 270 274 274 276 277 277 279 282 282 285 289 292 294 294 296 299 301 302
237 238 240 239 239 241 242 243 247 250 255 258 261 262 267 273 274 275 274 274 277 279 280 282 285 286 291 293 295 300 302 303 303
239 240 241 244 245 244 247 250 252 253 255 259 263 267 270 273 275 274 274 275 277 280 283 286 290 293 295 298 302 303 303 302 301